This is the latest recevied weather packets stored in our database for station/object KC5DP. If no packets are shown the sender has not sent any weather packets the latest 1 day(s).
| Time | Temp. | Humidity | Pressure | Rain* | Wind** | Luminosity | Snow |
|---|---|---|---|---|---|---|---|
| 1778013726 | 27.78° C | 64% | 1010.4 hPa | 0 mm | 0.45 m/s, 159° | 247 W/m² | - |
| 1778013424 | 27.78° C | 67% | 1010.4 hPa | 0 mm | 0 m/s | 208 W/m² | - |
| 1778013120 | 27.78° C | 66% | 1010.2 hPa | 0 mm | 0.45 m/s, 139° | 189 W/m² | - |
| 1778012816 | 27.78° C | 65% | 1010.6 hPa | 0 mm | 0.89 m/s, 85° | 250 W/m² | - |
| 1778012512 | 27.78° C | 65% | 1010.6 hPa | 0 mm | 0.89 m/s, 85° | 250 W/m² | - |
| 1778012208 | 27.78° C | 65% | 1010.6 hPa | 0 mm | 0.89 m/s, 85° | 250 W/m² | - |
| 1778011906 | 27.78° C | 67% | 1010.6 hPa | 0 mm | 0.45 m/s, 173° | 190 W/m² | - |
| 1778011605 | 27.78° C | 65% | 1010.6 hPa | 0 mm | 1.34 m/s, 73° | 273 W/m² | - |
| 1778011301 | 27.78° C | 65% | 1010.7 hPa | 0 mm | 0.45 m/s, 143° | 293 W/m² | - |
| 1778010997 | 27.78° C | 65% | 1010.7 hPa | 0 mm | 0.45 m/s, 143° | 293 W/m² | - |
| 1778010694 | 27.78° C | 64% | 1010.6 hPa | 0 mm | 0 m/s | 216 W/m² | - |
| 1778010392 | 27.78° C | 64% | 1010.7 hPa | 0 mm | 0 m/s | 393 W/m² | - |
| 1778010087 | 27.78° C | 66% | 1010.8 hPa | 0 mm | 0.89 m/s, 133° | 262 W/m² | - |
| 1778009784 | 27.78° C | 66% | 1010.7 hPa | 0 mm | 0 m/s | 322 W/m² | - |
| 1778009481 | 27.78° C | 65% | 1010.9 hPa | 0 mm | 0.89 m/s, 99° | 301 W/m² | - |
| 1778009180 | 27.78° C | 64% | 1010.8 hPa | 0 mm | 1.79 m/s, 141° | 302 W/m² | - |
| 1778008877 | 27.78° C | 65% | 1011.1 hPa | 0 mm | 0.89 m/s, 127° | 339 W/m² | - |
| 1778008576 | 27.78° C | 65% | 1010.9 hPa | 0 mm | 0.45 m/s, 117° | 294 W/m² | - |
| 1778008273 | 27.78° C | 66% | 1011 hPa | 0 mm | 0 m/s | 523 W/m² | - |
| 1778007968 | 27.22° C | 65% | 1010.9 hPa | 0 mm | 0.89 m/s, 13° | 266 W/m² | - |
| 1778007664 | 27.22° C | 67% | 1011 hPa | 0 mm | 0.89 m/s, 128° | 294 W/m² | - |
| 1778007360 | 27.22° C | 66% | 1011 hPa | 0 mm | 1.34 m/s, 146° | 237 W/m² | - |
| 1778007057 | 27.22° C | 65% | 1011.2 hPa | 0 mm | 0.89 m/s, 124° | 401 W/m² | - |
| 1778006754 | 27.22° C | 65% | 1011.2 hPa | 0 mm | 0.89 m/s, 124° | 401 W/m² | - |
| 1778006450 | 27.22° C | 64% | 1011 hPa | 0 mm | 0.89 m/s, 115° | 477 W/m² | - |
* Rain latest hour (hover to see other rain measurements)
** Current wind speed in m/s (hover to see current wind gust speed)